Location: Carella
(45.8167°N, 9.2667°E)
Time: 23:51:58
(UTC+00:00)

STARLINK-1138 - Pass Details

Date: 30 March 2020
Orbit: 548 x 551 km, 53.0° (Epoch: 03 June)

Event Time Altitude Azimuth Distance (km) Brightness Sun altitude
Rises 19:08:29 0° 250° (WSW) 2,717 8.0 -14.2°
Reaches altitude 10° 19:10:45 10° 254° (WSW) 1,825 7.1 -14.6°
Maximum altitude 19:14:51 59° 335° (NNW) 641 4.1 -15.2°
Enters shadow 19:18:46 11° 55° (NE) 1,758 5.9 -15.8°
